FLOCK 2K-13 (42891 NORAD) Tracking and Keplerian Element Data

This shows tracking and keplerian element data for the satellite.

Feedback or suggestion? Click here.




ElementValue
Catalog42891
NameFLOCK 2K-13
Epoch Orbit3280
Epoch Day45.49726565
Epoch Year2018
RAAN308.3297
Inclination96.9929
Eccentricity0.0013136
Argument of Perigee171.9252
Mean Anonmoly188.2206
Mean Motion15.35163645
Decay Rate4.655E-05
L11 42891U 17042BU 18045.49726565 .00004655 00000-0 13823-3 0 9990
L22 42891 96.9929 308.3297 0013136 171.9252 188.2206 15.35163645 32802

Live tracking and technical data element details for FLOCK 2K-13 (NORAD 42891). FLOCK 2K-13 can be tracked NOW for your location showing map with azimuth and elevation plus other details from your city location.

Track the satellite on the map from your city or location and see movement details for azimuth, elevation, latitude, longitude, range, height, and movement on the map or in text.







IsCatalogInMostPopularTable: catalog: 42891, numindb: 134
Update: records affected: 1



GetName: 42891 FLOCK 2K-13

Hit Count: updated at: Wed, 14 Nov 2018 10:49:30 GMT